Location: Ammerl�gen
(47.2167°N, 9.6000°E)
Time: 11:27:22
(UTC+00:00)

CZ-4 R/B DEB - Pass Details

Date: 18 October 2021
Orbit: 738 x 791 km, 98.5° (Epoch: 26 November)

Event Time Altitude Azimuth Distance (km) Brightness Sun altitude
Exits shadow 19:19:33 52° 243° (WSW) 924 ? -29.5°
Maximum altitude 19:19:55 53° 260° (W) 911 ? -29.6°
Drops below altitude 10° 19:24:45 10° 337° (NNW) 2,257 ? -30.4°
Sets 19:27:06 0° 342° (NNW) 3,186 ? -30.7°
